N5ZKK Weather Reports


time (UTC)temp
C
wind
direction
speed
KPH
gust
KPH
rain 1hr
cm
rain 24hr
cm
rain mn
cm
humidity
%
barometer
mb
20260510044520 22 0.0 0.0 0.00 0.00 0.00 86 1014.1
20260510043523 22 0.0 0.0 0.00 0.00 0.00 85 1014.1
20260510042524 22 0.0 0.0 0.00 0.00 0.00 84 1014.1
20260510042513 22 0 0.0 0.0 0.00 0.00 0.00 83 1012.1
20260510041526 23 0.0 0.0 0.00 0.00 0.00 83 1014.1
20260510040529 23 0.0 0.0 0.00 0.00 0.00 81 1014.0
20260510035531 23 0.0 0.0 0.00 0.00 0.00 80 1013.9
20260510035513 23 0 0.0 1.6 0.00 0.00 0.00 79 1011.7
20260510034516 23 0.0 0.0 0.00 0.00 0.00 79 1013.8
20260510033517 24 0.0 0.0 0.00 0.00 0.00 78 1013.8
20260510032640 24 0.0 0.0 0.00 0.00 0.00 77 1013.7
20260510032513 23 0 0.0 0.0 0.00 0.00 0.00 77 1011.3
20260510031522 24 0.0 0.0 0.00 0.00 0.00 77 1013.6
20260510030525 24 0.0 0.0 0.00 0.00 0.00 76 1013.3
20260510025521 23 0.0 0.0 0.00 0.00 0.00 76 1013.2
20260510025513 23 0 0.0 0.0 0.00 0.00 0.00 75 1010.9
20260510024517 23 0.0 0.0 0.00 0.00 0.00 75 1013.0
20260510023552 23 0.0 0.0 0.00 0.00 0.00 74 1012.9
20260510022516 24 0.0 0.0 0.00 0.00 0.00 74 1012.8
20260510022513 24 0 0.0 0.0 0.00 0.00 0.00 72 1010.3
20260510021518 25 0.0 0.0 0.00 0.00 0.00 72 1012.7
20260510020541 25 0.0 0.0 0.00 0.00 0.00 67 1012.4
20260510015523 26 0.0 0.0 0.00 0.00 0.00 65 1012.2
20260510015513 26 0 0.0 0.0 0.00 0.00 0.00 63 1009.4
20260510014525 27 0.0 0.0 0.00 0.00 0.00 62 1011.9
20260510013528 27 0.0 0.0 0.00 0.00 0.00 58 1011.8
20260510012530 28 0.0 0.0 0.00 0.00 0.00 54 1011.7
20260510012513 29 0 0.0 0.0 0.00 0.00 0.00 53 1008.4
20260510011552 30 0.0 0.0 0.00 0.00 0.00 51 1011.7
20260510010536 32 0.0 0.0 0.00 0.00 0.00 47 1011.7
20260510005519 33 0.0 0.0 0.00 0.00 0.00 46 1011.4
20260510005513 34 0 0.0 0.0 0.00 0.00 0.00 42 1007.1
20260510004521 35 259 0.0 1.6 0.00 0.00 0.00 40 1011.3
20260510003522 36 179 1.6 3.2 0.00 0.00 0.00 39 1011.3
20260510002525 37 203 0.0 3.2 0.00 0.00 0.00 38 1011.3
20260510002513 36 180 0.0 1.6 0.00 0.00 0.00 39 1006.6
20260510001521 37 225 0.0 3.2 0.00 0.00 0.00 38 1011.3
20260510000517 38 258 0.0 3.2 0.00 0.00 0.00 37 1011.3
20260509235531 37 171 1.6 4.8 0.00 0.00 0.00 36 1011.2
20260509235513 37 200 1.6 3.2 0.00 0.00 0.00 37 1006.3
20260509234515 37 187 1.6 4.8 0.00 0.00 0.00 37 1011.1
20260509233517 36 176 1.6 6.4 0.00 0.00 0.00 39 1011.1
20260509232519 35 182 4.8 9.7 0.00 0.00 0.00 40 1011.1
20260509232513 35 152 4.8 9.7 0.00 0.00 0.00 39 1006.6
20260509231521 36 203 4.8 8.0 0.00 0.00 0.00 40 1011.1
20260509230523 36 226 3.2 8.0 0.00 0.00 0.00 39 1011.2
20260509225526 36 250 3.2 8.0 0.00 0.00 0.00 38 1011.3
20260509225513 35 70 0.0 3.2 0.00 0.00 0.00 38 1006.8
20260509224548 36 265 4.8 8.0 0.00 0.00 0.00 39 1011.3
20260509223530 35 228 4.8 8.0 0.00 0.00 0.00 40 1011.2
20260509222552 34 194 3.2 6.4 0.00 0.00 0.00 41 1011.2
20260509222513 33 129 3.2 6.4 0.00 0.00 0.00 41 1007.1
20260509221516 35 217 4.8 8.0 0.00 0.00 0.00 41 1011.3
20260509220519 35 311 3.2 6.4 0.00 0.00 0.00 42 1011.2
20260509215541 35 332 4.8 8.0 0.00 0.00 0.00 42 1011.3
20260509215513 35 303 3.2 6.4 0.00 0.00 0.00 41 1006.9
20260509214523 35 263 4.8 9.7 0.00 0.00 0.00 42 1011.4
20260509213519 33 352 4.8 6.4 0.00 0.00 0.00 45 1011.6
20260509212516 34 250 3.2 4.8 0.00 0.00 0.00 45 1011.7
20260509212513 33 49 3.2 6.4 0.00 0.00 0.00 44 1007.4
20260509211610 34 23 6.4 11.3 0.00 0.00 0.00 44 1011.7
20260509210532 33 331 0.0 3.2 0.00 0.00 0.00 47 1011.8
20260509205516 35 252 4.8 6.4 0.00 0.00 0.00 42 1012.0
20260509205513 33 227 1.6 4.8 0.00 0.00 0.00 46 1007.9
20260509204538 33 246 3.2 6.4 0.00 0.00 0.00 46 1012.4
20260509203540 34 265 4.8 8.0 0.00 0.00 0.00 45 1012.5
20260509202522 33 80 3.2 6.4 0.00 0.00 0.00 49 1012.6
20260509202513 33 27 3.2 6.4 0.00 0.00 0.00 47 1008.7
20260509201525 33 95 3.2 4.8 0.00 0.00 0.00 45 1012.8
20260509200527 34 33 4.8 8.0 0.00 0.00 0.00 43 1013.0
20260509195529 33 181 4.8 6.4 0.00 0.00 0.00 47 1013.0
20260509195513 33 193 6.4 9.7 0.00 0.00 0.00 42 1008.8
20260509194531 34 236 6.4 11.3 0.00 0.00 0.00 44 1013.1
20260509193533 33 261 6.4 12.9 0.00 0.00 0.00 48 1013.3
20260509192517 32 25 4.8 8.0 0.00 0.00 0.00 52 1013.3
20260509192513 33 317 3.2 8.0 0.00 0.00 0.00 48 1009.1
20260509191519 33 275 6.4 14.5 0.00 0.00 0.00 50 1013.3
20260509190520 32 125 4.8 11.3 0.00 0.00 0.00 50 1013.6
20260509185516 33 290 8.0 12.9 0.00 0.00 0.00 51 1013.8
20260509185513 33 251 6.4 9.7 0.00 0.00 0.00 51 1009.6
20260509184544 33 252 8.0 11.3 0.00 0.00 0.00 51 1013.8
20260509183526 31 230 4.8 8.0 0.00 0.00 0.00 56 1013.9
20260509182529 31 203 3.2 8.0 0.00 0.00 0.00 57 1014.1
20260509182513 31 239 3.2 6.4 0.00 0.00 0.00 54 1010.6
20260509181531 31 206 4.8 9.7 0.00 0.00 0.00 58 1014.3
20260509180533 32 109 4.8 9.7 0.00 0.00 0.00 55 1014.5
20260509175516 31 141 4.8 9.7 0.00 0.00 0.00 59 1014.5
20260509175513 30 171 6.4 9.7 0.00 0.00 0.00 60 1011.1
20260509174519 30 201 6.4 11.3 0.00 0.00 0.00 64 1014.8
20260509173521 30 237 6.4 9.7 0.00 0.00 0.00 64 1014.9
20260509172523 30 165 8.0 9.7 0.00 0.00 0.00 65 1014.9
20260509172513 29 138 4.8 8.0 0.00 0.00 0.00 66 1011.6
20260509171525 29 223 8.0 12.9 0.00 0.00 0.00 68 1014.9
20260509170527 28 161 4.8 9.7 0.00 0.00 0.00 68 1015.1
20260509165610 29 97 4.8 8.0 0.00 0.00 0.00 68 1015.2
20260509165513 28 165 3.2 6.4 0.00 0.00 0.00 70 1012.0
20260509164606 28 223 4.8 8.0 0.00 0.00 0.00 73 1015.1
20260509163516 27 213 6.4 11.3 0.00 0.00 0.00 74 1015.3
20260509162518 27 144 6.4 11.3 0.00 0.00 0.00 76 1015.4
20260509162513 26 171 4.8 9.7 0.00 0.00 0.00 77 1012.6
20260509161521 26 151 6.4 12.9 0.00 0.00 0.00 79 1015.4
20260509160523 26 174 8.0 12.9 0.00 0.00 0.00 78 1015.1
20260509155546 25 96 4.8 8.0 0.00 0.00 0.00 82 1015.3
20260509155513 25 99 4.8 8.0 0.00 0.00 0.00 82 1012.7
20260509154548 25 143 6.4 12.9 0.00 0.00 0.00 82 1015.1
20260509153530 25 74 4.8 9.7 0.00 0.00 0.00 82 1014.9
20260509152532 25 145 6.4 12.9 0.00 0.00 0.00 82 1014.8
20260509152513 26 129 6.4 8.0 0.00 0.00 0.00 78 1011.9
20260509151516 26 128 4.8 8.0 0.00 0.00 0.00 79 1014.7
20260509150518 27 208 4.8 6.4 0.00 0.00 0.00 75 1014.5
20260509145540 25 0.0 0.0 0.00 0.00 0.00 81 1014.7
20260509145513 24 58 1.6 4.8 0.00 0.00 0.00 84 1012.4
20260509144523 23 146 4.8 6.4 0.00 0.00 0.00 87 1014.7
20260509143525 23 219 4.8 9.7 0.00 0.00 0.00 88 1014.8
20260509142527 22 177 4.8 8.0 0.00 0.00 0.00 89 1014.7
20260509142513 22 172 1.6 4.8 0.00 0.00 0.00 89 1012.5
20260509141529 22 187 4.8 8.0 0.00 0.00 0.00 91 1014.5
20260509140525 21 0.0 0.0 0.00 0.00 0.00 93 1015.2
20260509135515 21 40 1.6 4.8 0.00 0.00 0.00 94 1015.4
20260509135513 21 11 1.6 4.8 0.00 0.00 0.00 95 1013.6
20260509134517 21 343 4.8 8.0 0.00 0.00 0.00 96 1015.3
20260509133520 21 15 1.6 4.8 0.00 0.00 0.00 96 1015.1
20260509132522 21 0.0 0.0 0.00 0.00 0.00 98 1014.9
20260509132513 20 0 0.0 0.0 0.00 0.00 0.00 98 1013.2
20260509131524 20 232 1.6 3.2 0.00 0.00 0.00 99 1014.9
20260509130547 20 0.0 0.0 0.00 0.00 0.00 99 1014.9
20260509125529 20 359 1.6 4.8 0.00 0.00 0.00 99 1014.8
20260509125513 20 24 1.6 6.4 0.00 0.00 0.00 99 1013.3
20260509124531 20 0.0 4.8 0.00 0.00 0.00 99 1015.0
20260509123515 20 59 1.6 4.8 0.00 0.00 0.00 99 1015.1
20260509122518 20 0.0 0.0 0.00 0.00 0.00 99 1015.0
20260509122513 19 202 0.0 1.6 0.00 0.00 0.00 99 1013.4
20260509121520 20 38 1.6 4.8 0.00 0.00 0.00 99 1014.8
20260509120522 20 27 3.2 8.0 0.00 0.00 0.00 99 1014.5
20260509115545 20 27 4.8 9.7 0.00 0.00 0.00 99 1014.7
20260509115513 19 29 4.8 8.0 0.00 0.00 0.00 99 1013.2
20260509114526 20 11 8.0 14.5 0.00 0.00 0.00 99 1014.9
20260509113549 20 23 6.4 8.0 0.00 0.00 0.00 99 1015.0
20260509112546 20 22 8.0 12.9 0.00 0.00 0.00 99 1015.0
20260509112513 20 29 8.0 12.9 0.00 0.00 0.00 99 1013.5
20260509111516 20 17 9.7 12.9 0.00 0.00 0.00 99 1015.1
20260509110519 20 341 8.0 12.9 0.00 0.00 0.00 99 1015.0
20260509105521 20 0.0 0.0 0.00 0.00 0.00 99 1014.1
20260509105513 19 0 0.0 0.0 0.00 0.00 0.00 99 1012.6
20260509104543 20 0.0 0.0 0.00 0.00 0.00 99 1013.9
20260509103525 20 0.0 0.0 0.00 0.00 0.00 99 1013.9
20260509102528 20 0.0 0.0 0.00 0.00 0.00 99 1013.9
20260509102513 19 0 0.0 0.0 0.00 0.00 0.00 99 1012.3
20260509101550 20 0.0 0.0 0.00 0.00 0.00 99 1013.8
20260509100552 20 0.0 0.0 0.00 0.00 0.00 99 1013.6
20260509095517 20 0.0 0.0 0.00 0.00 0.00 99 1013.6
20260509095513 19 0 0.0 0.0 0.00 0.00 0.00 99 1012.1
20260509094519 20 0.0 0.0 0.00 0.00 0.00 99 1013.3
20260509093521 20 0.0 0.0 0.00 0.00 0.00 99 1013.3
20260509092603 20 0.0 0.0 0.00 0.00 0.00 99 1013.3
20260509092513 19 0 0.0 0.0 0.00 0.00 0.00 99 1011.8
20260509091526 19 0.0 0.0 0.00 0.00 0.00 99 1013.2
20260509090528 19 0.0 0.0 0.00 0.00 0.00 99 1013.1
20260509085530 19 0.0 0.0 0.00 0.00 0.00 99 1013.3
20260509085513 19 0 0.0 0.0 0.00 0.00 0.00 99 1011.9
20260509084546 19 0.0 0.0 0.00 0.00 0.00 99 1013.5
20260509083523 19 0.0 0.0 0.00 0.00 0.00 99 1013.8
20260509082519 19 0.0 0.0 0.00 0.00 0.00 99 1013.9
20260509082513 19 0 0.0 0.0 0.00 0.00 0.00 99 1012.6
20260509081516 19 357 1.6 4.8 0.00 0.00 0.00 99 1014.0
20260509080538 19 0.0 0.0 0.00 0.00 0.00 99 1013.9
20260509075520 19 0.0 0.0 0.00 0.00 0.00 99 1013.8
20260509075513 18 0 0.0 0.0 0.00 0.00 0.00 99 1012.5
20260509074523 19 0.0 0.0 0.00 0.00 0.00 99 1013.8
20260509073525 19 0.0 0.0 0.00 0.00 0.00 99 1013.8
20260509072522 18 0.0 0.0 0.00 0.00 0.00 99 1013.8
20260509072513 18 0 0.0 0.0 0.00 0.00 0.00 99 1012.5
20260509071525 18 0.0 0.0 0.00 0.00 0.00 99 1013.8
20260509070527 18 0.0 0.0 0.00 0.00 0.00 99 1013.8
20260509065529 18 0.0 0.0 0.00 0.00 0.00 99 1013.8
20260509065513 18 0 0.0 0.0 0.00 0.00 0.00 99 1012.6
20260509064532 18 0.0 0.0 0.00 0.00 0.00 99 1014.0
20260509063515 18 0.0 0.0 0.00 0.00 0.00 99 1014.0
20260509062518 18 0.0 0.0 0.00 0.00 0.00 99 1014.0
20260509062513 18 0 0.0 0.0 0.00 0.00 0.00 99 1012.8
20260509061540 18 0.0 0.0 0.00 0.00 0.00 99 1014.0
20260509060543 18 0.0 0.0 0.00 0.00 0.00 99 1013.8
20260509055605 18 0.0 0.0 0.00 0.00 0.00 99 1013.9
20260509055513 18 0 0.0 0.0 0.00 0.00 0.00 99 1012.8
20260509054521 18 0.0 0.0 0.00 0.00 0.00 99 1014.3
20260509053518 18 0.0 0.0 0.00 0.00 0.00 99 1014.3
20260509052552 18 0.0 0.0 0.00 0.00 0.00 99 1014.3
20260509052513 17 0 0.0 0.0 0.00 0.00 0.00 99 1013.2
20260509051516 18 0.0 0.0 0.00 0.00 0.00 99 1014.3
20260509050518 18 0.0 0.0 0.00 0.00 0.00 99 1014.3
20260509045521 18 0.0 0.0 0.00 0.00 0.00 99 1014.1
20260509045513 18 0 0.0 0.0 0.00 0.00 0.00 99 1013.0